Wind_Speed
23 25 26 29 30 30 31 34 32 29 23 21 19 18 17 13 15 16 21 20 15 20 18 21 19 13 11 9 15 11 7 8 3 17 15 4 15 11 10 12 8 8 9 6 14
23 26 27 30 31 30 31 34 32 30 23 20 17 15 14 8 15 18 15 14 16 19 23 21 22 17 8 6 6 7 4 10 9 4 9 15 13 17 10 16 16 12 10 13 22
24 28 29 30 32 30 32 34 32 29 23 14 13 13 15 5 7 18 16 17 20 19 18 15 15 14 4 6 6 5 15 10 6 8 13 14 19 15 10 11 13 15 14 7 22
25 29 31 32 32 29 33 32 30 25 15 13 12 12 13 19 5 18 18 20 19 17 16 14 15 8 5 5 7 11 16 13 18 24 16 9 19 13 12 10 4 8 13 16 18
25 28 31 32 32 29 32 32 28 15 14 14 11 13 14 18 15 18 18 19 19 16 14 15 9 6 4 5 10 10 10 11 7 9 15 18 19 13 3 6 8 10 12 17 15
25 28 31 32 33 29 32 30 22 13 12 13 11 9 17 13 22 18 18 20 18 17 15 12 7 11 7 5 4 13 7 6 10 14 8 7 16 9 6 9 12 14 17 18 17
25 30 32 33 33 30 31 24 13 11 13 14 11 7 14 19 20 15 18 23 23 18 16 11 12 7 8 8 9 10 3 4 7 9 6 6 9 9 8 15 15 20 19 20 15
26 29 32 32 32 30 30 16 11 9 15 21 8 9 4 25 17 19 24 27 19 15 10 12 11 8 4 11 5 4 2 2 3 3 5 6 4 4 9 9 14 20 22 22 19
26 30 33 32 31 30 27 9 12 7 5 19 17 3 6 25 19 23 32 28 15 11 10 9 10 3 6 6 3 4 1 1 5 5 4 5 4 5 9 11 8 19 21 20 15
27 30 32 31 27 31 25 9 22 18 6 5 23 4 22 28 19 22 32 16 15 13 6 8 5 3 3 6 4 4 4 4 1 7 3 6 6 4 11 11 9 4 20 20 15
27 30 32 30 24 31 25 4 2 3 24 12 8 6 22 29 8 28 37 14 10 7 5 5 5 4 6 3 5 6 5 5 4 4 5 4 7 6 12 8 5 8 22 17 14
27 30 30 28 21 27 22 10 6 2 2 17 16 16 27 28 9 30 37 12 7 5 8 4 3 4 6 1 6 5 3 4 5 7 3 4 7 9 8 6 10 3 16 15 5
27 30 30 27 15 25 21 14 6 2 2 10 10 12 26 21 8 25 35 11 4 6 5 2 4 9 4 2 5 2 3 2 2 8 2 4 4 4 6 11 8 0 13 14 1
28 30 29 25 12 19 16 9 4 3 5 10 11 10 24 12 6 21 29 7 6 5 6 2 5 7 5 2 2 4 6 4 3 3 2 4 3 2 5 10 9 9 11 12 10
27 29 24 23 16 16 12 5 2 1 5 16 8 11 25 14 11 20 26 7 3 6 4 3 7 7 4 5 4 3 9 6 0 3 3 2 0 3 3 2 1 7 14 6 6
26 24 21 22 18 14 9 3 1 6 3 8 7 9 10 9 10 19 16 22 3 5 4 4 7 2 2 10 2 2 4 3 4 3 3 4 2 4 4 5 4 8 8 10 7
25 19 20 21 17 12 8 1 5 7 5 9 6 8 8 8 7 9 6 11 8 8 8 9 5 6 6 5 6 10 3 3 4 3 2 3 2 4 10 13 10 11 18 19 14
24 17 17 19 16 11 6 5 10 4 4 4 7 8 6 10 5 9 5 7 5 5 2 6 7 6 6 4 6 5 3 3 4 2 1 1 2 2 8 14 22 4 8 18 16
22 12 16 17 15 10 2 7 6 4 4 6 8 4 5 5 2 7 5 4 3 4 2 5 5 5 3 2 1 4 3 1 4 3 1 2 3 2 18 20 25 25 2 13 15
19 7 18 14 11 7 7 5 3 0 4 2 4 4 5 6 7 6 3 2 5 6 3 3 6 4 6 5 2 1 3 2 3 2 2 1 3 6 18 18 18 17 21 16 9
13 2 17 11 6 11 4 3 1 3 6 3 2 3 3 3 2 3 3 2 4 7 3 1 0 8 2 6 6 5 3 2 1 1 1 2 3 6 10 12 14 16 20 17 7
6 2 16 7 7 5 2 2 2 4 6 3 2 1 2 4 3 2 2 5 6 9 4 3 2 4 4 9 6 2 6 6 3 4 1 1 2 6 10 11 17 19 20 18 9
3 3 10 5 4 2 1 2 3 4 3 3 2 2 2 3 3 3 3 3 9 7 2 4 2 4 8 4 3 5 4 8 5 2 1 2 1 9 14 16 23 23 27 26 3
2 3 9 14 9 5 3 3 3 2 1 2 0 2 4 3 2 4 3 3 19 4 9 5 1 3 1 5 6 6 6 6 3 2 6 2 4 15 17 17 25 29 29 25 25
4 3 3 2 6 6 3 1 2 2 1 1 1 2 1 2 4 3 2 6 6 5 8 3 1 2 8 10 4 8 9 5 2 6 5 6 5 12 14 13 21 22 26 26 29
2 6 7 5 3 4 5 2 2 3 1 2 2 4 3 4 6 4 2 2 4 6 4 5 2 4 3 2 7 7 17 11 9 10 4 7 4 14 17 16 22 24 24 27 27
6 10 4 1 3 4 3 3 2 1 5 6 4 2 3 5 8 17 16 17 13 5 3 3 2 3 4 4 1 4 9 8 4 8 6 6 8 18 16 17 16 23 27 24 27
Wind_Direction
20 14 10 10 6 4 360 356 351 347 347 346 343 345 355 63 61 42 30 9 348 350 345 342 345 309 310 268 262 273 235 246 246 217 232 243 216 226 227 236 216 218 243 244 183
19 13 9 8 4 2 358 354 349 347 344 342 351 8 18 91 57 38 25 2 351 339 340 339 342 333 317 262 266 220 272 252 227 232 306 287 261 235 212 227 257 265 257 265 204
17 11 8 6 2 2 356 351 348 349 350 360 11 32 36 40 60 8 357 349 338 333 331 334 332 333 269 261 250 255 241 252 307 289 214 267 280 253 230 225 233 257 280 303 193
13 10 6 3 2 1 354 350 349 355 16 27 39 45 56 43 44 353 343 340 346 345 343 336 336 353 290 300 325 265 252 246 251 274 296 282 281 251 223 251 349 319 309 301 243
9 7 4 1 1 1 353 349 349 17 24 44 49 51 48 45 11 358 349 339 343 338 340 332 325 330 335 296 307 252 252 264 249 271 270 265 275 264 224 258 11 360 329 307 276
4 2 1 360 360 2 354 350 355 29 47 36 41 57 44 45 360 357 351 352 350 347 338 336 320 315 276 272 279 305 239 258 274 273 258 269 268 226 183 231 330 353 347 334 282
1 359 357 357 358 3 355 355 17 50 48 39 44 74 48 12 6 9 359 359 349 342 332 330 326 322 309 293 303 288 304 314 234 236 237 315 260 238 211 227 295 335 333 338 305
360 357 355 356 358 4 359 5 42 82 58 43 46 56 62 3 11 12 358 347 344 337 327 322 328 306 271 298 289 333 350 313 320 261 223 116 289 250 215 220 238 292 322 338 318
358 357 355 355 356 3 5 50 55 50 52 40 19 69 34 3 9 1 357 350 5 355 331 317 327 341 345 324 319 7 320 280 303 356 225 129 276 211 179 164 170 276 317 313 320
359 356 355 356 354 1 12 104 73 53 37 36 24 15 352 343 2 352 356 359 7 350 352 3 15 28 21 5 14 339 345 334 309 335 209 174 227 122 154 154 134 313 304 284 318
357 355 355 356 353 358 15 164 303 49 53 61 7 36 343 344 346 5 2 5 13 32 9 352 45 20 319 322 320 309 330 339 339 346 6 212 232 229 174 167 142 251 295 271 300
355 352 355 357 353 -0 12 72 65 73 38 36 18 10 355 345 326 5 3 23 14 0 340 5 32 328 302 201 353 323 310 306 277 341 8 31 246 227 162 175 145 172 288 248 292
352 351 354 358 359 3 22 44 68 91 26 18 18 4 357 348 355 356 2 359 13 357 358 4 295 327 340 324 336 282 271 326 331 323 3 337 281 198 164 141 173 175 268 239 289
351 349 355 1 5 5 21 22 75 55 72 345 349 10 355 1 358 2 6 5 1 327 336 281 317 353 343 26 351 337 332 280 328 21 342 10 325 262 161 172 193 190 262 208 186
349 347 357 3 7 12 4 20 108 66 40 325 336 347 354 36 328 351 10 23 30 309 355 319 341 357 6 318 336 288 340 314 317 73 354 5 281 3 22 220 152 217 197 203 218
346 346 356 1 5 7 4 36 107 42 292 332 346 342 353 347 353 348 10 28 28 349 346 290 296 296 296 306 285 283 321 69 61 72 13 303 316 38 28 347 214 221 181 157 206
344 343 358 360 6 4 0 34 40 82 350 327 334 339 325 334 346 15 4 26 37 8 5 327 329 319 21 347 357 16 31 22 23 34 201 318 24 24 342 351 324 219 194 183 195
342 342 352 1 3 2 6 53 66 263 308 322 329 328 6 358 15 347 20 20 30 53 2 7 333 7 359 49 314 318 14 132 168 148 138 208 275 117 6 354 2 255 201 193 188
340 339 356 1 3 359 21 49 179 215 306 319 325 5 327 353 28 3 30 357 20 39 47 0 288 317 258 272 170 318 31 165 116 231 31 18 310 140 354 2 7 11 11 198 205
340 332 359 2 1 4 69 128 152 297 325 342 24 48 323 321 11 36 5 332 331 15 180 278 297 269 298 354 34 39 303 338 32 87 66 57 61 351 346 348 354 359 346 341 249
337 345 2 0 5 54 94 181 117 21 21 27 354 313 310 302 338 350 274 299 9 325 336 19 216 295 343 23 13 353 15 351 348 107 72 145 81 2 335 347 348 346 340 326 268
340 23 2 5 40 43 78 96 66 22 12 14 95 298 289 304 306 327 283 211 18 347 336 292 166 289 292 297 269 277 350 2 342 1 11 96 89 -0 0 4 4 353 342 339 217
14 10 14 39 91 18 94 67 71 34 27 16 26 347 357 294 348 255 313 289 2 352 329 312 326 341 347 2 36 34 12 6 295 254 308 99 112 15 15 14 8 2 354 3 173
33 29 34 56 70 107 109 24 38 25 172 346 282 31 14 330 304 302 305 301 329 324 336 342 233 194 242 265 305 309 349 337 319 322 322 66 74 8 10 8 359 356 357 5 39
53 83 75 358 26 85 78 196 48 2 296 327 174 100 292 302 316 279 314 312 322 -0 350 85 226 216 270 273 9 48 0 327 359 19 344 25 71 8 349 1 1 349 357 7 28
102 140 99 92 115 72 2 316 45 319 232 295 173 303 219 200 197 258 44 276 268 342 21 347 294 345 289 182 78 61 21 16 41 2 16 337 76 360 340 351 5 357 360 8 11
125 135 136 53 113 86 232 202 175 82 254 254 288 340 268 239 276 278 271 262 260 308 301 27 -0 2 287 325 55 18 8 3 79 28 333 21 341 339 341 345 8 359 360 3 4
Height
1536 1533 1529 1525 1521 1517 1512 1508 1503 1500 1496 1493 1490 1486 1484 1483 1482 1481 1480 1481 1479 1477 1477 1473 1471 1469 1467 1466 1465 1465 1461 1453 1455 1451 1448 1448 1449 1448 1449 1451 1451 1450 1449 1448 1449
1537 1533 1529 1525 1521 1516 1512 1507 1501 1497 1494 1491 1488 1485 1484 1483 1483 1482 1483 1482 1480 1477 1474 1471 1468 1465 1465 1464 1463 1461 1457 1449 1449 1453 1454 1451 1448 1447 1448 1451 1447 1447 1447 1446 1445
1537 1533 1529 1525 1520 1516 1511 1505 1500 1494 1491 1488 1486 1485 1485 1484 1484 1485 1484 1481 1478 1475 1472 1470 1468 1465 1463 1462 1460 1457 1453 1451 1449 1448 1449 1451 1446 1445 1445 1447 1447 1446 1445 1443 1443
1536 1533 1529 1525 1520 1515 1509 1503 1498 1493 1490 1489 1488 1486 1485 1484 1490 1485 1483 1480 1476 1473 1470 1468 1466 1464 1462 1460 1460 1456 1450 1450 1450 1449 1450 1447 1448 1442 1443 1447 1448 1446 1444 1441 1440
1537 1533 1529 1524 1518 1513 1508 1502 1497 1493 1491 1489 1488 1487 1486 1485 1487 1485 1482 1479 1475 1471 1469 1467 1465 1463 1461 1462 1459 1451 1448 1447 1447 1448 1447 1448 1446 1443 1442 1446 1446 1445 1442 1437 1433
1535 1532 1527 1523 1518 1513 1507 1501 1496 1494 1492 1491 1489 1490 1488 1486 1487 1484 1480 1477 1473 1470 1468 1466 1464 1462 1461 1459 1458 1449 1443 1443 1443 1443 1444 1443 1440 1440 1440 1444 1444 1442 1439 1435 1432
1534 1531 1526 1521 1516 1511 1505 1499 1495 1494 1492 1491 1491 1490 1489 1492 1485 1482 1479 1475 1471 1468 1466 1464 1463 1462 1460 1456 1453 1447 1443 1441 1438 1438 1440 1439 1435 1434 1436 1440 1442 1443 1440 1435 1429
1534 1529 1524 1519 1514 1510 1503 1499 1497 1495 1494 1493 1492 1490 1490 1489 1487 1482 1477 1472 1468 1466 1464 1463 1462 1460 1459 1455 1451 1446 1445 1444 1437 1436 1435 1438 1436 1431 1435 1442 1444 1448 1442 1433 1428
1532 1527 1522 1518 1513 1509 1503 1499 1498 1497 1495 1494 1493 1491 1494 1491 1484 1483 1477 1468 1465 1465 1463 1462 1460 1460 1458 1455 1452 1449 1446 1446 1436 1435 1434 1438 1442 1433 1436 1442 1445 1447 1441 1440 1433
1531 1526 1521 1516 1511 1508 1503 1501 1499 1499 1496 1494 1495 1496 1493 1490 1485 1481 1477 1470 1466 1464 1463 1462 1460 1462 1461 1458 1460 1457 1451 1445 1440 1442 1433 1437 1436 1435 1438 1440 1441 1444 1444 1443 1438
1530 1526 1521 1516 1510 1506 1503 1501 1503 1501 1498 1503 1504 1502 1498 1492 1486 1480 1473 1470 1468 1467 1469 1465 1467 1471 1466 1465 1463 1457 1457 1450 1448 1441 1436 1436 1435 1435 1437 1440 1439 1442 1446 1443 1442
1529 1525 1520 1514 1510 1507 1503 1501 1505 1508 1505 1504 1504 1503 1500 1495 1489 1484 1475 1472 1474 1474 1472 1469 1467 1466 1463 1463 1460 1460 1457 1452 1446 1440 1438 1438 1438 1434 1436 1440 1442 1445 1450 1444 1442
1528 1523 1519 1514 1510 1507 1504 1505 1506 1507 1507 1506 1506 1504 1500 1497 1494 1489 1481 1475 1477 1477 1477 1474 1469 1465 1461 1462 1461 1458 1456 1455 1452 1444 1439 1438 1432 1432 1436 1440 1442 1441 1444 1444 1438
1527 1523 1519 1513 1510 1506 1505 1506 1506 1506 1521 1515 1508 1507 1503 1495 1495 1493 1487 1483 1481 1482 1477 1475 1469 1466 1463 1461 1462 1463 1457 1453 1451 1449 1447 1444 1436 1430 1431 1437 1440 1441 1439 1442 1443
1527 1521 1517 1512 1511 1507 1507 1504 1505 1507 1539 1517 1514 1510 1505 1503 1505 1496 1494 1484 1488 1487 1484 1476 1472 1468 1467 1466 1464 1460 1457 1454 1452 1456 1455 1445 1447 1433 1431 1431 1434 1441 1443 1440 1439
1525 1521 1517 1513 1509 1506 1505 1504 1506 1522 1550 1523 1518 1517 1514 1506 1504 1499 1497 1489 1490 1489 1485 1481 1474 1471 1469 1465 1463 1459 1458 1453 1454 1460 1468 1456 1447 1443 1443 1445 1438 1439 1438 1440 1444
1524 1519 1515 1513 1511 1507 1505 1505 1521 1539 1533 1528 1526 1521 1518 1513 1507 1505 1506 1506 1513 1516 1517 1490 1477 1472 1471 1467 1464 1461 1463 1481 1480 1477 1467 1454 1447 1449 1446 1447 1449 1440 1438 1440 1449
1523 1519 1516 1512 1509 1507 1504 1508 1539 1545 1538 1533 1530 1524 1524 1519 1515 1512 1508 1516 1515 1524 1531 1513 1491 1478 1474 1476 1476 1471 1470 1482 1490 1479 1456 1450 1459 1450 1453 1449 1440 1433 1436 1443 1449
1522 1518 1516 1513 1509 1507 1505 1539 1552 1545 1540 1538 1533 1532 1531 1525 1525 1519 1524 1525 1521 1523 1533 1526 1497 1480 1476 1475 1477 1472 1472 1473 1483 1476 1461 1461 1453 1450 1453 1445 1438 1436 1439 1442 1446
1521 1519 1517 1513 1510 1508 1512 1542 1540 1540 1540 1538 1541 1539 1538 1532 1531 1530 1532 1525 1526 1523 1523 1522 1514 1484 1477 1474 1474 1473 1471 1471 1479 1487 1468 1461 1462 1465 1464 1461 1456 1454 1450 1447 1446
1518 1517 1518 1514 1512 1510 1537 1544 1539 1540 1540 1542 1541 1542 1540 1541 1535 1536 1537 1524 1524 1523 1521 1521 1521 1496 1481 1484 1485 1479 1476 1474 1475 1479 1469 1454 1469 1480 1478 1471 1468 1463 1456 1453 1450
1519 1519 1517 1514 1516 1529 1541 1537 1538 1539 1539 1540 1540 1541 1542 1538 1540 1538 1531 1524 1522 1523 1529 1520 1524 1520 1494 1489 1488 1486 1482 1479 1472 1471 1476 1476 1475 1484 1480 1477 1473 1468 1463 1455 1450
1519 1520 1520 1516 1535 1542 1539 1539 1539 1540 1541 1540 1540 1542 1542 1539 1547 1532 1527 1522 1523 1521 1524 1522 1530 1521 1500 1494 1488 1492 1490 1492 1486 1480 1474 1474 1477 1484 1480 1476 1472 1470 1462 1453 1451
1520 1525 1524 1522 1531 1535 1540 1543 1542 1541 1541 1539 1540 1540 1541 1542 1537 1537 1529 1522 1522 1521 1520 1520 1525 1520 1508 1505 1504 1505 1504 1495 1489 1482 1475 1475 1478 1483 1483 1483 1476 1469 1466 1461 1455
1521 1528 1530 1540 1539 1538 1539 1543 1542 1543 1542 1539 1538 1542 1542 1557 1547 1542 1533 1528 1521 1521 1521 1524 1531 1522 1510 1506 1500 1506 1504 1498 1490 1491 1478 1480 1487 1496 1491 1488 1486 1480 1471 1464 1457
1521 1524 1530 1535 1539 1540 1543 1546 1543 1544 1544 1540 1539 1537 1540 1546 1541 1543 1535 1533 1529 1523 1525 1526 1525 1518 1510 1501 1502 1506 1506 1499 1501 1502 1494 1492 1492 1499 1496 1491 1487 1482 1477 1470 1464
1518 1522 1524 1537 1538 1540 1544 1543 1542 1545 1543 1541 1539 1536 1537 1533 1533 1531 1531 1531 1531 1530 1531 1531 1530 1527 1519 1504 1501 1506 1520 1514 1513 1515 1510 1506 1509 1504 1496 1495 1494 1489 1482 1477 1470